Home   Weather   Toamasina   Past weeks

Flag for Madagascar Past Weather in Toamasina, Madagascar — Yesterday and Last 2 Weeks

Now
72 °F

Passing clouds.


Feels Like: 67 °F
Forecast: 72 / 82 °F
Wind: 2 mph from Southwest

Location: Tamatave

Current Time: May 28, 2017 at 3:54:21 am

Latest Report: May 28, 2017 at 3:00 am


Visibility: N/A

Pressure: 30.01 "Hg

Humidity: 94%

Dew Point: 70 °F

Location of ToamasinaLocation

Past Weather in Toamasina — Graph

°F

Toamasina Temperature Yesterday

Maximum temperature yesterday: 84 °F (at 1:00 pm)
Minimum temperature yesterday: 70 °F (at 3:00 am)
Average temperature yesterday: 76 °F

High & Low Weather Summary for the Past Weeks

 TemperatureHumidityPressure
High84 °F (May 13, 12:00 pm)100% (May 13, 5:00 am)30.18 "Hg (May 13, 5:00 am)
Low66 °F (May 23, 5:00 am)62% (May 27, 2:00 pm)29.98 "Hg (May 27, 2:00 pm)
Average75 °F88%30.07 "Hg
* Reported May 13 2:00 am — May 28 2:00 am, Toamasina. Weather by CustomWeather, © 2017

Note: Actual official high and low records may vary slightly from our data, if they occured in-between our weather recording intervals... More about our weather records

Advertising

Toamasina Weather History for the Previous 24 Hours

Scroll right to see more
 ConditionsComfort  
Time TempWeatherWind HumidityBarometerVisibility
2:00 am
Sun, May 28
72 °FPassing clouds.2 mph94%30.01 "HgN/A
1:00 am72 °FPassing clouds.2 mph94%30.04 "HgN/A
12:00 am73 °FPassing clouds.2 mph89%30.04 "HgN/A
11:00 pm
Sat, May 27
73 °FPassing clouds.2 mph94%30.04 "HgN/A
10:00 pm73 °FPassing clouds.2 mph94%30.04 "HgN/A
9:00 pm75 °FMild.2 mph89%30.04 "HgN/A
8:00 pm77 °FPartly cloudy.2 mph89%30.04 "HgN/A
7:00 pm77 °FPartly cloudy.2 mph89%30.01 "HgN/A
6:00 pm79 °FPassing clouds.2 mph79%30.01 "HgN/A
5:00 pm81 °FPartly sunny.5 mph79%29.98 "HgN/A
4:00 pm81 °FPartly sunny.7 mph70%29.98 "HgN/A
3:00 pm82 °FScattered clouds.7 mph62%29.98 "HgN/A
2:00 pm84 °FPassing clouds.7 mph62%29.98 "HgN/A
1:00 pm84 °FPassing clouds.9 mph66%30.01 "HgN/A
12:00 pm82 °FScattered clouds.9 mph70%30.04 "HgN/A
11:00 am82 °FScattered clouds.9 mph70%30.07 "HgN/A
10:00 am82 °FPassing clouds.9 mph70%30.07 "HgN/A
9:00 am77 °FScattered clouds.9 mph83%30.07 "HgN/A
8:00 am75 °FPassing clouds.5 mph83%30.07 "HgN/A
7:00 am72 °FPassing clouds.5 mph94%30.04 "HgN/A
6:00 am70 °FPassing clouds.No wind94%30.04 "HgN/A
5:00 am70 °FPassing clouds.No wind94%30.04 "HgN/A
4:00 am70 °FScattered showers. Passing clouds.No wind94%30.04 "HgN/A
3:00 am70 °FScattered showers. Passing clouds.No wind94%30.04 "HgN/A
Weather by CustomWeather, © 2017

See weather overviewHow to use our weather pages